Theta_e
323 319 323 321 309 311 303 304 309 309 310 313 319 315 316 319 313 309 336 337 340 341 344 343 345 345 343 343 345 344 344 344 344 345 347 347 347 346 345 345 347 346 344 341 341 340 340 339 338
319 317 323 316 305 300 302 306 306 309 313 318 318 318 316 315 326 329 331 338 341 340 344 341 343 344 343 345 345 344 342 341 341 341 343 346 347 346 344 344 346 345 342 341 340 340 339 337 335
316 318 316 309 306 300 301 306 310 313 314 314 314 320 319 319 328 330 336 340 341 340 343 340 343 344 342 344 344 342 342 340 339 339 339 340 340 342 344 343 345 344 342 340 340 339 337 335 334
316 319 314 304 300 302 304 309 312 312 312 312 317 314 323 328 330 334 338 341 338 339 343 341 343 344 342 343 342 342 341 340 339 338 338 338 336 337 340 342 343 343 341 339 340 338 336 334 333
317 316 308 303 301 304 305 309 314 310 310 314 315 314 320 329 334 337 337 340 336 337 343 341 342 343 343 343 343 342 341 338 337 337 337 336 336 336 335 338 342 340 340 341 339 337 335 333 332
311 312 304 301 299 303 306 311 313 310 311 314 315 318 322 332 334 336 338 338 337 338 343 342 336 340 341 342 342 341 341 339 337 336 336 336 336 336 335 336 339 339 338 338 337 336 334 332 331
310 307 303 302 301 301 307 312 309 309 310 312 321 316 322 327 334 336 338 337 337 339 342 341 341 338 336 338 338 340 340 339 337 338 337 336 336 336 335 336 338 337 337 337 336 335 334 332 330
307 311 301 301 300 299 308 309 309 310 309 318 321 311 317 328 332 334 337 336 336 337 340 340 342 340 340 340 332 334 336 337 336 335 333 331 331 332 332 332 335 337 335 335 334 332 332 331 329
312 306 304 302 301 302 308 307 307 309 312 315 317 316 322 332 332 331 331 332 332 334 337 340 339 341 341 339 334 331 331 331 330 330 326 328 331 332 332 329 333 335 334 332 331 329 327 328 326
313 302 306 306 306 304 306 308 308 307 311 310 314 321 328 331 329 326 326 327 328 329 332 337 338 339 341 337 339 339 336 333 334 335 334 333 331 332 330 326 326 329 330 329 327 325 324 327 329
305 308 306 305 303 304 303 304 307 306 307 311 312 319 324 327 328 328 329 329 328 330 331 334 336 338 340 337 337 337 337 335 332 333 334 333 332 332 331 330 330 332 325 329 327 327 327 327 328
306 306 305 302 304 302 303 304 303 306 310 309 315 322 326 326 327 327 328 329 329 328 329 333 335 336 337 337 336 336 337 336 334 331 332 333 332 332 330 328 327 329 331 329 328 326 325 326 325
307 304 305 303 303 302 302 302 303 304 309 308 315 322 325 327 328 329 330 331 330 329 329 331 334 335 335 336 334 334 333 334 335 332 332 333 333 332 330 329 328 326 326 326 326 324 325 324 323
307 303 302 302 302 302 302 301 301 305 306 309 315 320 323 326 327 328 329 329 329 330 330 330 332 334 335 334 334 333 334 332 333 334 333 333 333 332 331 329 328 327 326 326 326 327 326 325 324
302 302 304 306 302 301 302 299 300 307 307 308 312 317 322 325 327 327 329 329 331 331 331 331 330 333 333 334 334 334 333 332 330 334 335 335 334 333 332 331 329 329 328 328 328 326 326 325 323
303 302 298 305 303 300 301 302 306 306 305 307 311 315 319 323 326 328 329 330 332 332 332 331 330 331 332 332 333 333 333 332 332 334 335 335 334 334 333 332 332 331 330 329 328 327 326 325 323
299 299 299 301 300 299 298 301 305 304 304 305 308 313 317 319 324 328 330 331 332 332 331 330 333 330 331 331 332 332 333 332 333 333 334 334 334 335 333 331 328 326 325 325 326 326 325 325 323
295 299 294 299 297 296 296 297 301 302 302 304 306 309 314 317 320 325 328 331 332 333 333 334 334 333 332 331 332 332 332 332 332 332 332 333 334 335 334 329 328 325 324 322 321 320 318 318 319
301 299 298 296 296 295 297 297 299 303 300 302 304 305 309 315 320 323 326 329 330 332 333 333 333 334 333 331 329 328 328 331 332 333 331 332 334 334 331 329 328 326 325 325 322 320 319 319 317
296 295 294 297 296 296 297 296 299 299 300 302 303 304 305 308 316 320 323 325 326 328 330 333 333 334 333 333 332 332 332 334 335 334 333 331 333 332 330 330 328 327 325 324 322 319 318 318 317
294 296 295 296 294 295 296 298 301 304 301 300 301 303 305 306 308 314 319 323 326 326 327 330 333 334 334 335 334 332 334 333 333 333 334 334 334 334 333 332 331 328 327 325 323 320 319 319 316
293 296 295 293 294 292 294 290 299 303 304 301 300 302 302 303 304 308 313 317 322 326 329 329 331 333 334 335 333 330 328 327 331 333 335 335 332 333 335 334 334 332 329 327 327 323 321 320 318
296 296 295 293 292 290 291 289 295 298 298 301 303 303 303 305 303 304 306 310 315 320 325 328 329 330 332 333 334 332 331 333 333 333 335 335 335 334 334 331 332 332 331 328 328 323 323 321 322
296 293 293 293 291 286 292 289 292 296 297 300 303 304 304 304 304 304 306 306 307 310 314 321 324 327 330 332 333 332 331 332 332 332 331 333 332 330 329 328 329 329 329 328 325 324 322 322 319
296 292 285 284 284 284 285 287 293 298 298 298 298 302 303 304 304 304 302 300 302 304 306 309 315 320 326 329 331 332 332 332 331 331 332 332 331 330 330 328 328 328 326 326 325 323 321 318 316
291 293 288 281 281 286 283 285 292 296 297 296 301 300 298 298 300 300 301 302 303 304 305 306 308 313 321 326 328 330 329 330 331 331 331 331 332 331 331 329 327 326 326 324 322 320 317 316 315
290 288 293 283 277 282 286 289 294 296 296 296 296 297 299 300 299 300 301 301 300 303 304 306 307 309 314 320 322 324 325 326 327 329 330 329 330 326 327 327 324 325 325 320 316 312 309 308 307
293 295 286 288 281 279 284 284 289 294 294 296 297 298 299 299 299 300 301 302 302 304 306 308 308 308 309 310 314 318 317 322 325 325 324 322 322 321 318 320 314 313 310 309 307 304 304 303 300
290 289 290 292 287 283 282 288 294 294 293 294 297 298 298 298 299 300 301 302 303 306 308 308 308 306 307 308 309 309 309 309 320 323 323 321 318 316 310 310 306 306 303 301 301 300 298 296 295
294 291 291 287 282 287 283 287 293 294 294 295 296 297 298 298 299 300 301 301 302 305 307 308 308 307 307 308 309 309 311 311 314 317 315 311 308 308 306 304 301 300 299 299 298 293 293 292 292
Wind_Speed
5 5 2 3 3 1 4 4 1 7 6 2 1 4 1 5 2 4 8 7 13 12 13 12 9 10 10 10 13 13 11 11 13 15 15 15 17 17 18 17 16 16 18 18 18 18 18 18 17
6 3 2 1 3 4 6 3 8 6 3 7 5 2 1 5 4 9 11 11 13 11 12 11 10 11 11 9 13 13 12 13 13 12 13 15 17 18 17 17 15 14 17 17 17 18 17 17 17
2 4 3 1 0 3 5 6 9 8 8 4 3 2 2 4 6 13 8 16 13 11 11 12 10 11 11 13 13 13 13 14 14 13 13 13 14 15 15 14 13 14 16 16 17 17 17 17 16
4 1 3 3 4 3 2 8 6 13 2 3 2 4 2 5 12 4 16 14 12 11 11 11 10 11 11 11 13 14 12 13 14 15 14 14 12 13 13 12 14 15 14 15 17 16 16 16 15
2 1 1 1 2 2 1 4 14 10 5 7 4 5 3 5 5 14 15 12 12 12 12 12 10 10 10 10 10 12 12 13 14 13 14 13 13 13 11 8 13 16 13 16 16 16 15 14 14
1 2 3 4 3 1 1 7 10 6 5 6 5 9 7 2 9 15 14 13 10 12 13 13 10 8 8 10 11 11 11 12 12 13 12 13 12 12 13 10 11 15 13 14 14 14 13 13 13
3 1 2 2 1 2 2 10 8 5 7 4 9 10 5 6 8 12 13 13 11 12 12 12 12 10 7 7 8 9 11 10 11 12 12 11 11 10 11 7 11 14 13 12 13 12 11 11 12
3 2 4 3 3 1 5 9 2 4 5 3 2 5 6 12 12 11 12 11 12 10 10 12 11 12 11 10 7 8 9 9 10 12 10 10 10 10 9 7 9 13 13 12 12 11 10 9 10
2 3 6 5 5 4 7 8 3 2 6 3 4 0 3 18 15 12 12 10 9 8 9 11 10 10 10 9 8 8 7 8 9 10 9 7 7 8 8 9 10 12 11 10 10 9 9 8 8
5 4 7 4 3 3 7 7 9 6 6 6 6 3 10 16 16 17 15 12 12 11 10 10 11 11 10 7 10 8 8 6 6 7 7 5 6 6 7 7 8 9 9 9 8 7 4 0 3
5 7 6 5 2 2 4 4 3 5 7 9 13 13 15 18 17 18 17 16 15 13 9 9 11 11 12 9 5 4 4 4 4 6 6 6 5 5 4 4 4 4 2 3 3 3 3 4 3
5 5 5 3 3 3 4 4 4 8 5 4 6 16 18 19 19 20 19 17 16 14 13 12 11 9 9 7 6 5 5 5 4 4 6 5 4 4 4 3 4 3 2 3 2 2 2 2 2
8 4 4 3 5 1 3 2 3 9 10 4 8 15 20 19 18 17 16 15 15 15 14 14 13 12 10 9 6 7 6 5 5 5 6 4 4 4 4 3 3 2 3 2 2 1 0 1 1
6 4 4 3 1 3 3 2 2 2 2 5 9 16 17 21 20 16 16 16 16 15 16 15 14 13 11 10 10 7 8 6 6 5 6 6 4 4 4 5 4 4 3 3 2 1 1 1 1
5 7 3 4 5 3 4 4 8 7 5 8 10 12 14 17 17 20 18 17 16 15 15 15 15 15 13 13 11 9 7 8 7 7 8 8 6 6 5 4 4 4 4 4 3 3 2 3 2
9 4 5 5 8 3 6 15 11 8 9 11 12 11 12 15 19 16 16 15 15 14 15 13 12 15 15 12 10 8 8 8 7 8 7 10 9 8 7 5 4 4 4 4 3 3 3 3 3
7 8 14 6 7 3 8 10 14 6 11 12 13 12 12 13 16 16 17 17 16 15 14 15 15 16 15 13 10 9 9 8 8 8 8 10 10 9 7 5 4 5 3 3 3 3 3 3 3
9 13 4 11 4 5 7 14 9 6 10 14 12 12 13 14 17 17 17 16 16 16 15 15 13 15 15 10 9 7 7 8 8 8 8 11 9 11 9 6 6 6 5 4 4 4 3 2 3
7 10 12 4 1 4 11 16 14 12 10 11 12 12 13 16 13 14 15 16 16 15 16 16 15 15 12 10 9 8 9 9 9 9 11 9 11 12 8 6 6 7 7 7 6 3 5 4 3
9 10 6 3 1 3 8 17 14 14 13 16 14 13 14 13 13 13 15 16 17 17 17 17 18 17 14 11 10 8 9 9 10 9 11 11 11 11 9 9 8 9 6 7 7 6 3 3 4
5 12 7 4 1 2 9 21 23 17 14 14 15 14 12 15 16 15 16 18 16 18 18 18 19 18 17 16 10 8 6 4 7 8 8 10 11 12 12 11 9 8 8 7 9 8 8 5 4
13 6 6 4 4 8 2 9 15 9 17 17 16 17 18 16 15 15 16 17 17 19 16 18 18 19 17 17 13 15 11 10 10 10 10 10 11 12 13 12 11 11 7 8 9 7 7 5 5
8 10 8 5 7 5 8 9 9 7 13 18 19 19 18 17 15 16 17 17 17 15 16 15 16 17 17 16 16 13 15 11 10 10 11 12 11 11 9 8 9 10 7 8 7 7 9 6 5
17 12 9 4 3 9 14 11 7 11 13 14 16 17 19 17 17 14 12 14 14 11 13 14 16 17 17 17 18 19 18 14 11 11 9 8 8 8 9 8 7 7 6 8 7 7 7 7 5
14 18 5 5 6 7 1 9 14 15 13 8 13 12 13 15 15 15 13 11 11 14 14 13 17 18 17 18 18 19 18 16 16 13 10 10 8 7 11 10 8 7 6 5 5 6 5 5 5
11 15 6 9 6 2 2 12 5 6 9 10 12 13 8 9 9 11 11 11 12 12 13 14 14 17 17 17 18 15 16 10 11 12 10 8 8 8 9 10 7 7 6 5 4 3 3 4 3
12 12 6 6 2 2 6 7 12 12 17 7 10 10 12 10 7 9 7 8 9 10 12 12 13 14 15 16 13 13 11 12 11 13 10 7 8 4 7 9 6 6 6 5 6 4 5 5 5
12 13 6 4 5 6 6 7 10 11 6 6 6 7 8 8 10 11 8 5 5 6 8 9 10 10 9 10 10 10 9 8 9 8 9 8 6 7 6 7 7 6 6 6 7 6 6 7 4
10 12 4 4 5 3 4 6 5 6 2 3 8 9 9 10 9 6 4 4 5 5 7 7 7 7 9 8 8 8 8 9 10 10 9 9 9 10 9 9 8 8 8 7 7 7 7 7 7
13 14 16 7 5 6 2 11 5 6 5 4 5 6 8 8 6 4 3 4 5 6 6 7 6 7 6 7 7 6 6 7 9 8 7 7 9 7 10 10 9 8 7 8 9 9 4 8 8
Wind_Direction
316 329 292 245 207 194 123 136 123 144 171 110 159 247 170 33 331 42 138 119 136 136 129 127 112 107 99 104 103 99 98 102 94 91 97 103 106 102 96 88 80 85 87 85 81 79 76 74 72
330 310 242 342 212 175 127 140 164 137 107 128 128 168 151 83 68 114 137 146 145 141 136 126 114 112 106 98 120 109 101 97 100 99 92 93 98 101 99 95 87 94 92 93 90 85 78 72 69
333 347 298 0 152 138 132 179 143 122 125 152 154 4 8 81 97 140 117 146 145 142 133 124 126 121 115 97 106 103 94 101 100 91 82 76 83 87 95 99 98 90 95 93 89 84 77 71 65
357 183 134 260 133 99 94 157 154 145 174 192 163 119 124 333 134 126 141 145 145 142 133 126 122 124 125 108 107 105 102 100 100 99 95 90 84 61 54 71 85 85 86 94 93 86 80 74 70
37 272 212 160 124 127 198 158 166 157 142 152 188 132 83 121 112 137 144 149 148 145 135 136 124 125 125 113 103 103 107 106 103 103 101 100 100 98 90 70 74 84 82 90 91 90 85 80 73
68 297 209 200 166 192 205 168 172 170 145 143 166 136 129 82 138 148 151 150 161 148 144 138 133 128 129 122 117 112 107 109 104 103 103 99 99 100 104 102 86 88 79 84 91 91 86 81 75
67 281 182 178 175 252 146 159 197 167 155 169 139 141 113 162 155 155 159 151 164 153 152 147 146 139 116 121 119 114 115 117 116 113 95 87 83 80 97 94 88 96 84 86 87 85 83 79 73
91 301 160 220 178 158 144 172 209 189 138 108 231 164 167 164 154 159 155 159 162 161 162 155 150 160 155 148 126 123 118 105 90 98 98 96 91 86 79 88 81 95 90 83 81 75 72 78 72
232 44 220 188 184 136 159 188 157 96 132 199 169 261 60 141 142 156 159 161 169 170 181 164 166 165 159 151 135 123 107 104 111 113 108 142 115 118 113 62 70 86 91 89 84 78 74 93 83
179 153 232 212 202 156 174 218 161 174 159 195 178 131 135 148 156 167 172 175 179 188 185 179 179 169 163 159 162 150 142 150 142 141 139 116 117 97 97 86 73 74 82 84 80 74 79 297 65
185 210 197 213 204 149 154 196 186 185 204 204 203 164 162 167 173 179 184 184 187 186 187 199 188 181 169 170 170 165 158 152 154 153 150 133 128 142 128 136 138 139 163 123 113 108 60 52 23
196 193 174 122 140 143 165 127 198 229 243 337 193 162 164 180 184 188 191 189 184 185 187 189 194 193 187 170 175 182 177 167 168 165 159 152 148 145 140 136 135 147 147 125 105 72 49 48 38
232 168 195 124 136 117 145 163 274 245 245 337 162 164 177 190 193 195 197 192 187 190 187 188 197 193 189 183 188 186 188 199 180 175 177 179 159 151 148 139 148 145 152 156 153 137 75 30 3
192 168 120 161 163 208 238 131 230 202 184 191 195 189 188 195 194 193 200 198 195 195 189 185 196 198 194 195 181 196 189 189 202 196 191 191 179 170 162 159 162 165 176 163 174 195 218 221 255
138 188 235 196 172 207 188 214 226 251 177 194 211 217 205 201 192 203 204 204 197 195 193 193 193 195 200 201 193 191 193 196 198 210 198 195 197 189 184 175 175 171 175 186 197 198 223 253 237
189 210 223 217 187 187 215 246 242 211 204 211 213 215 214 210 210 203 205 208 203 198 197 195 201 197 200 202 200 200 198 197 197 209 201 203 204 200 199 192 189 176 184 205 218 222 241 260 269
186 200 215 223 214 174 210 255 241 207 219 223 211 211 217 222 219 212 206 202 203 201 196 201 202 201 201 203 204 207 207 209 207 204 205 206 207 208 213 205 183 178 187 212 234 231 258 274 287
173 210 205 222 157 206 209 245 260 220 224 236 224 209 219 222 221 214 210 208 205 205 202 203 198 202 201 202 205 210 212 217 217 212 208 206 210 208 209 204 187 183 192 199 200 216 215 261 298
204 206 223 191 160 229 241 259 243 235 235 239 233 225 220 231 219 214 209 208 211 212 211 207 199 203 194 198 200 203 214 211 214 214 212 215 212 209 197 196 186 191 205 209 201 198 225 239 219
169 186 201 201 233 264 266 270 266 256 246 247 241 230 228 222 220 209 212 208 210 213 214 211 207 203 196 195 204 208 204 220 217 215 212 207 214 207 200 197 196 193 196 204 202 197 197 230 190
168 201 172 233 359 239 297 279 263 243 243 244 248 244 238 232 218 216 206 214 212 217 211 213 212 207 202 203 201 206 214 217 210 217 219 216 208 211 214 211 208 201 201 204 199 198 204 221 196
197 183 173 187 275 259 333 281 265 256 240 228 233 234 227 224 223 224 210 208 213 224 219 217 214 213 207 201 201 196 203 206 214 214 214 212 207 214 214 217 219 222 213 213 211 198 204 207 216
200 158 174 146 211 271 224 268 262 267 254 240 234 231 229 219 214 213 215 213 204 207 217 222 219 218 210 203 205 207 217 217 217 221 217 215 214 216 208 195 214 220 213 220 215 191 207 207 226
136 123 95 108 188 256 245 225 235 244 257 248 246 239 234 229 223 235 209 199 213 200 200 207 215 219 216 210 209 213 215 213 214 210 215 210 212 208 202 200 207 201 204 218 201 190 189 199 205
167 158 149 204 208 246 73 221 255 282 252 251 272 268 245 244 232 228 210 206 211 199 197 199 206 216 211 213 215 218 222 219 219 214 213 212 211 210 212 197 194 214 203 194 167 178 179 186 187
175 177 173 192 200 215 100 237 239 279 279 281 267 264 270 266 249 246 248 236 222 209 209 201 202 209 204 207 212 215 221 221 221 218 217 218 219 222 211 195 180 202 176 168 160 140 138 162 149
176 207 117 102 32 246 216 264 263 259 281 237 264 285 269 255 253 256 254 253 251 237 214 212 204 201 204 203 203 207 206 210 214 216 209 209 218 205 196 182 159 178 164 142 131 129 118 114 105
202 141 169 202 203 238 228 270 246 279 352 343 293 284 273 258 248 231 230 240 239 230 213 200 199 202 189 194 204 206 201 204 201 195 187 188 178 167 140 159 132 133 107 111 114 113 119 120 95
157 184 188 174 203 234 291 257 217 239 226 299 305 320 322 312 297 279 251 208 185 192 184 183 186 172 168 172 176 194 204 216 221 212 193 177 166 158 136 146 128 132 122 112 113 120 119 119 122
193 191 183 188 179 245 346 262 173 186 199 239 281 295 316 315 319 303 206 196 201 196 183 188 192 171 171 160 169 191 191 197 201 194 171 147 142 142 136 129 121 121 121 130 133 124 116 129 122